Weather History for Monett, MO

Change the Weather History Date:

Friday, November 23, 2012

  Actual Average (KJLN) Record (KJLN)
Temperature  
Mean Temperature 40 °F 45 °F  
Max Temperature 51 °F 55 °F 76 °F (1966)
Min Temperature 28 °F 35 °F 13 °F (1950)
Degree Days  
Heating Degree Days 26 20  
Month to date heating degree days 351  
Since 1 July heating degree days 603  
Cooling Degree Days 0 0  
Month to date cooling degree days 5  
Year to date cooling degree days 1696  
Moisture  
Dew Point 25 °F    
Average Humidity 61    
Maximum Humidity 81    
Minimum Humidity 45    
Precipitation  
Precipitation 0.00 in 0.12 in 0.50 in (2014)
Month to date precipitation 2.94  
Year to date precipitation 42.89  
Sea Level Pressure  
Sea Level Pressure 30.37 in    
Wind  
Wind Speed 11 mph (NW)    
Max Wind Speed 21 mph    
Max Gust Speed 32 mph    
Visibility 10 miles    
Events      
T = Trace of Precipitation, MM = Missing Value Source: NWS Daily Summary

Daily Weather History Graph

Daily Weather History Graph

Search for Another Location

Airport:

Trip Planner

Search our weather history database for the weather conditions in past years. The results will help you decide how hot, cold, wet, or windy it might be!

Date:

Astronomy

Nov. 23, 2012 Rise Set
Actual Time 7:03 AM CST 5:01 PM CST
Civil Twilight 6:34 AM CST 5:29 PM CST
Nautical Twilight 6:03 AM CST 6:01 PM CST
Astronomical Twilight 5:32 AM CST 6:32 PM CST
Moon 2:11 PM CST (11/23) 2:28 AM CST (11/23)
Length of Visible Light 10h 54m
Length of Day
9h 58m
Waxing Gibbous, 80% of the Moon is Illuminated
Nov 23
Waxing Gibbous
Nov 28
Full
Dec 6
Last Quarter
Dec 13
New
Dec 19
First Quarter

Hourly Weather History & Observations

Time (CST) Temp. Windchill Dew Point Humidity Pressure Visibility Wind Dir Wind Speed Gust Speed Precip Events Conditions
12:15 AM 51.8 °F - 33.8 °F 50% 30.22 in 10.0 mi North 20.7 mph 32.2 mph N/A   Overcast
12:35 AM 50.0 °F - 33.8 °F 54% 30.23 in 10.0 mi North 15.0 mph 23.0 mph N/A   Mostly Cloudy
12:55 AM 50.0 °F - 33.8 °F 54% 30.23 in 10.0 mi North 10.4 mph 18.4 mph N/A   Mostly Cloudy
1:15 AM 48.2 °F - 32.0 °F 54% 30.23 in 10.0 mi North 16.1 mph 20.7 mph N/A   Scattered Clouds
1:35 AM 46.4 °F 41.1 °F 32.0 °F 57% 30.25 in 10.0 mi North 11.5 mph - N/A   Clear
1:55 AM 46.4 °F 40.4 °F 32.0 °F 57% 30.26 in 10.0 mi North 13.8 mph 19.6 mph N/A   Scattered Clouds
2:15 AM 46.4 °F 41.1 °F 32.0 °F 57% 30.27 in 10.0 mi North 11.5 mph 17.3 mph N/A   Mostly Cloudy
2:35 AM 46.4 °F 41.9 °F 32.0 °F 57% 30.28 in 10.0 mi North 9.2 mph - N/A   Overcast
2:55 AM 44.6 °F 40.2 °F 32.0 °F 61% 30.29 in 10.0 mi North 8.1 mph - N/A   Mostly Cloudy
3:15 AM 44.6 °F 40.7 °F 32.0 °F 61% 30.29 in 10.0 mi NNW 6.9 mph - N/A   Clear
3:35 AM 42.8 °F 39.3 °F 32.0 °F 66% 30.30 in 10.0 mi NNW 5.8 mph - N/A   Clear
3:55 AM 42.8 °F 39.3 °F 32.0 °F 66% 30.30 in 10.0 mi North 5.8 mph - N/A   Clear
4:15 AM 41.0 °F 39.0 °F 32.0 °F 70% 30.30 in 10.0 mi NNW 3.5 mph - N/A   Clear
4:35 AM 41.0 °F 38.0 °F 32.0 °F 70% 30.31 in 10.0 mi NNW 4.6 mph - N/A   Clear
4:55 AM 41.0 °F 39.0 °F 32.0 °F 70% 30.31 in 10.0 mi NNW 3.5 mph - N/A   Clear
5:15 AM 41.0 °F 38.0 °F 32.0 °F 70% 30.32 in 10.0 mi NW 4.6 mph - N/A   Clear
5:35 AM 41.0 °F 38.0 °F 32.0 °F 70% 30.32 in 10.0 mi NW 4.6 mph - N/A   Clear
5:55 AM 39.2 °F 35.0 °F 32.0 °F 75% 30.33 in 10.0 mi WNW 5.8 mph - N/A   Clear
6:15 AM 37.4 °F 32.1 °F 32.0 °F 81% 30.33 in 10.0 mi WNW 6.9 mph - N/A   Clear
6:35 AM 37.4 °F 32.1 °F 32.0 °F 81% 30.34 in 10.0 mi WNW 6.9 mph - N/A   Clear
6:55 AM 37.4 °F 32.8 °F 32.0 °F 81% 30.34 in 10.0 mi WNW 5.8 mph - N/A   Clear
7:15 AM 37.4 °F 31.4 °F 32.0 °F 81% 30.35 in 10.0 mi WNW 8.1 mph - N/A   Clear
7:35 AM 39.2 °F 32.0 °F 32.0 °F 75% 30.36 in 10.0 mi NW 11.5 mph 17.3 mph N/A   Clear
7:55 AM 41.0 °F 33.5 °F 32.0 °F 70% 30.37 in 10.0 mi NW 13.8 mph 18.4 mph N/A   Clear
8:15 AM 39.2 °F 29.6 °F 30.2 °F 70% 30.38 in 10.0 mi NW 19.6 mph 25.3 mph N/A   Clear
8:35 AM 41.0 °F 33.9 °F 30.2 °F 65% 30.38 in 10.0 mi NW 12.7 mph 20.7 mph N/A   Clear
8:55 AM 39.2 °F 29.8 °F 26.6 °F 61% 30.39 in 10.0 mi NW 18.4 mph 25.3 mph N/A   Clear
9:15 AM 37.4 °F 27.2 °F 24.8 °F 60% 30.39 in 10.0 mi NW 19.6 mph 31.1 mph N/A   Clear
9:35 AM 37.4 °F 26.9 °F 26.6 °F 65% 30.40 in 10.0 mi NW 20.7 mph 26.5 mph N/A   Clear
9:55 AM 37.4 °F 26.9 °F 21.2 °F 52% 30.42 in 10.0 mi NW 20.7 mph 27.6 mph N/A   Clear
10:15 AM 37.4 °F 27.2 °F 21.2 °F 52% 30.43 in 10.0 mi NNW 19.6 mph 26.5 mph N/A   Clear
10:35 AM 37.4 °F 27.5 °F 19.4 °F 48% 30.43 in 10.0 mi NW 18.4 mph 27.6 mph N/A   Clear
10:55 AM 37.4 °F 28.2 °F 21.2 °F 52% 30.44 in 10.0 mi NNW 16.1 mph 26.5 mph N/A   Clear
11:15 AM 37.4 °F 28.9 °F 21.2 °F 52% 30.43 in 10.0 mi NW 13.8 mph 21.9 mph N/A   Clear
11:35 AM 37.4 °F 29.3 °F 21.2 °F 52% 30.43 in 10.0 mi NNW 12.7 mph 23.0 mph N/A   Clear
11:55 AM 37.4 °F 28.2 °F 21.2 °F 52% 30.42 in 10.0 mi NW 16.1 mph 21.9 mph N/A   Clear
12:15 PM 37.4 °F 28.2 °F 21.2 °F 52% 30.42 in 10.0 mi NW 16.1 mph 21.9 mph N/A   Clear
12:35 PM 37.4 °F 29.3 °F 21.2 °F 52% 30.42 in 10.0 mi NNW 12.7 mph 23.0 mph N/A   Clear
12:55 PM 39.2 °F 30.5 °F 21.2 °F 49% 30.41 in 10.0 mi NW 16.1 mph 19.6 mph N/A   Clear
1:15 PM 39.2 °F 32.5 °F 21.2 °F 49% 30.40 in 10.0 mi NW 10.4 mph 21.9 mph N/A   Clear
1:35 PM 41.0 °F 33.1 °F 21.2 °F 45% 30.40 in 10.0 mi NW 15.0 mph 20.7 mph N/A   Clear
1:55 PM 41.0 °F 33.9 °F 21.2 °F 45% 30.40 in 10.0 mi NNW 12.7 mph 21.9 mph N/A   Clear
2:15 PM 41.0 °F 33.9 °F 23.0 °F 49% 30.40 in 10.0 mi NNW 12.7 mph - N/A   Clear
2:35 PM 41.0 °F 32.8 °F 21.2 °F 45% 30.40 in 10.0 mi NW 16.1 mph - N/A   Clear
2:55 PM 39.2 °F 31.2 °F 21.2 °F 49% 30.40 in 10.0 mi NW 13.8 mph 18.4 mph N/A   Clear
3:15 PM 39.2 °F 32.0 °F 21.2 °F 49% 30.39 in 10.0 mi NW 11.5 mph - N/A   Clear
3:35 PM 39.2 °F 32.0 °F 21.2 °F 49% 30.40 in 10.0 mi NW 11.5 mph 17.3 mph N/A   Clear
3:55 PM 39.2 °F 32.5 °F 21.2 °F 49% 30.40 in 10.0 mi NW 10.4 mph 17.3 mph N/A   Clear
4:15 PM 37.4 °F 32.1 °F 23.0 °F 56% 30.40 in 10.0 mi WNW 6.9 mph - N/A   Clear
4:35 PM 37.4 °F 31.4 °F 21.2 °F 52% 30.40 in 10.0 mi WNW 8.1 mph - N/A   Clear
4:55 PM 35.6 °F 29.2 °F 23.0 °F 60% 30.40 in 10.0 mi NW 8.1 mph - N/A   Clear
5:15 PM 35.6 °F 29.2 °F 21.2 °F 56% 30.40 in 10.0 mi NW 8.1 mph - N/A   Clear
5:35 PM 33.8 °F 27.7 °F 23.0 °F 65% 30.40 in 10.0 mi WNW 6.9 mph - N/A   Clear
5:55 PM 33.8 °F 28.6 °F 23.0 °F 65% 30.41 in 10.0 mi NW 5.8 mph - N/A   Clear
6:15 PM 33.8 °F 29.6 °F 23.0 °F 65% 30.41 in 10.0 mi WNW 4.6 mph - N/A   Clear
6:35 PM 32.0 °F 27.5 °F 23.0 °F 69% 30.41 in 10.0 mi WNW 4.6 mph - N/A   Clear
6:55 PM 32.0 °F 26.4 °F 23.0 °F 69% 30.41 in 10.0 mi WNW 5.8 mph - N/A   Clear
7:15 PM 32.0 °F 27.5 °F 23.0 °F 69% 30.41 in 10.0 mi WNW 4.6 mph - N/A   Clear
7:35 PM 32.0 °F 27.5 °F 21.2 °F 64% 30.41 in 10.0 mi WNW 4.6 mph - N/A   Clear
7:55 PM 32.0 °F 27.5 °F 21.2 °F 64% 30.41 in 10.0 mi WNW 4.6 mph - N/A   Clear
8:15 PM 32.0 °F 26.4 °F 21.2 °F 64% 30.40 in 10.0 mi NW 5.8 mph - N/A   Clear
8:35 PM 32.0 °F 26.4 °F 21.2 °F 64% 30.41 in 10.0 mi NW 5.8 mph - N/A   Clear
8:55 PM 32.0 °F 27.5 °F 21.2 °F 64% 30.41 in 10.0 mi NW 4.6 mph - N/A   Clear
9:15 PM 32.0 °F 26.4 °F 21.2 °F 64% 30.41 in 10.0 mi NW 5.8 mph - N/A   Clear
9:35 PM 30.2 °F 26.7 °F 21.2 °F 69% 30.42 in 10.0 mi NNW 3.5 mph - N/A   Clear
9:55 PM 30.2 °F 25.4 °F 21.2 °F 69% 30.41 in 10.0 mi NNW 4.6 mph - N/A   Clear
10:15 PM 30.2 °F 26.7 °F 19.4 °F 64% 30.41 in 10.0 mi NNW 3.5 mph - N/A   Clear
10:55 PM 30.2 °F 26.7 °F 19.4 °F 64% 30.40 in 10.0 mi NW 3.5 mph - N/A   Clear
11:15 PM 30.2 °F - 19.4 °F 64% 30.40 in 10.0 mi Calm Calm - N/A   Clear
11:35 PM 28.4 °F - 19.4 °F 69% 30.40 in 10.0 mi Calm Calm - N/A   Clear
11:55 PM 28.4 °F 24.6 °F 19.4 °F 69% 30.40 in 10.0 mi West 3.5 mph - N/A   Clear